Regional Weather Roundup
Issued by NWS

Home | Current Version | Previous Version | Graphics & Text | Print | Product List | Glossary On
Versions: 1 2 3 4 5 6 7 8 9 10 11 12 13 14 15 16 17 18 19 20 21 22 23 24 25 26 27 28 29 30 31 32 33 34 35 36 37 38 39 40 41 42 43 44 45 46 47 48 49 50
000
ASUS44 KMEG 280610
RWRTN
TENNESSEE HOURLY STATE WEATHER ROUNDUP
NATIONAL WEATHER SERVICE MEMPHIS TN
100 AM CDT WED SEP 28 2016

TNZ002-004-019-021-049-052-054-088>092-280700-
WEST TENNESSEE

CITY           SKY/WX    TMP DP  RH WIND       PRES   REMARKS
MEMPHIS INTL   PTCLDY    61  50  67 CALM      29.95F
NWS MEMPHIS      N/A     55 N/A N/A MISG        N/A
JACKSON          N/A    N/A N/A N/A MISG      29.95S
DYERSBURG      CLEAR    N/A N/A N/A MISG        N/A
UNION CITY     CLEAR     55  52  88 CALM      29.92S
PARIS          CLEAR     55  46  71 CALM      29.94S
HUNTINGDON     PTCLDY    54  50  87 CALM      29.93S
LEXINGTON      CLEAR     52  50  93 CALM      29.94F
$$

TNZ008-025-027-028-033-062-065-066-280700-
NORTH MIDDLE TENNESSEE

CITY           SKY/WX    TMP DP  RH WIND       PRES   REMARKS
NASHVILLE      CLEAR     55  49  80 S6        29.95S
PORTLAND       PTCLDY    52  50  93 S3        29.94S
CLARKSVILLE    CLEAR     55  49  80 CALM      29.93S
SMYRNA         CLEAR     52  49  89 CALM      29.96S
COOKEVILLE     CLEAR     46  46 100 CALM      29.95F
GALLATIN       CLEAR     52  50  93 CALM      29.97S
CROSSVILLE     CLEAR     49  45  86 W3        29.98F
$$

TNZ061-075-076-078-094-096-097-280700-
SOUTH MIDDLE TENNESSEE

CITY           SKY/WX    TMP DP  RH WIND       PRES   REMARKS
FAYETTEVILLE   CLOUDY    54  46  76 CALM      29.96S
TULLAHOMA      CLEAR     46  43  87 CALM      29.97S
WINCHESTER     CLEAR     48  48 100 CALM      29.97S
MCMINNVILLE    CLEAR     48  48 100 W64G107   29.96S
COLUMBIA       CLEAR    N/A N/A N/A CALM      29.94S
SHELBYVILLE    CLEAR     50  48  93 E5        29.97S
$$

TNZ017-018-042-046-047-280700-
NORTHEAST TENNESSEE

CITY           SKY/WX    TMP DP  RH WIND       PRES   REMARKS
TRI CITIES     PTCLDY    57  56  96 CALM      29.95S FOG
ELIZABETHTON     N/A     61  59  94 CALM      29.95S
$$

TNZ012-013-036-069-073-074-280700-
CENTRAL EAST TENNESSEE

CITY           SKY/WX    TMP DP  RH WIND       PRES   REMARKS
KNOXVILLE      PTCLDY    64  49  57 CALM      29.93F
OAK RIDGE      CLEAR     56  51  84 CALM      29.96S
DOWNTOWN KNOXV CLOUDY    61  55  82 CALM      29.94S
GATLINBURG     PTCLDY    61  59  94 CALM      29.93F
MORRISTOWN     CLOUDY    57  54  88 CALM      29.93S
JACKSBORO      CLOUDY    54  48  82 CALM      29.98S
$$

TNZ083-085-099-280700-
SOUTHEAST TENNESSEE

CITY           SKY/WX    TMP DP  RH WIND       PRES   REMARKS
CHATTANOOGA    MOCLDY    67  54  63 CALM      29.94S
$$

SKY/WX REPORTED AS FAIR MEANS FEW OR NO CLOUDS BELOW
12 THOUSAND FEET.




USA.gov is the U.S. government's official web portal to all federal, state and local government web resources and services.